Location: Unspecified
(0.0000°N, 0.0000°E)
Time: 05:39:50
(UTC+00:00)

Explorer 7 - All Passes

Search period start: 21 May 2026 00:00
Search period end: 31 May 2026 00:00
Orbit: 427 x 535 km, 50.2° (Epoch: 20 May)

Date Brightness Start Highest point End Pass type
(mag) Time Alt. Az. Time Alt. Az. Time Alt. Az.
21 May - 00:15:56 10° WSW 00:18:49 25° NW 00:21:40 10° N night (unlit)
21 May - 10:24:39 10° NNE 10:26:39 13° NE 10:28:38 10° E daylight
21 May - 12:01:08 10° WNW 12:04:47 33° SW 12:08:28 10° SSE daylight
21 May - 23:48:01 10° WSW 23:51:02 29° NW 23:54:01 10° N night (unlit)
22 May - 09:57:23 10° NNE 09:58:49 12° NE 10:00:17 10° ENE daylight
22 May - 11:33:14 10° WNW 11:36:58 37° SW 11:40:45 10° SSE daylight
22 May - 23:20:06 10° WSW 23:23:15 33° NW 23:26:21 10° NNE night (unlit)
23 May - 09:30:38 10° NE 09:30:59 10° NE 09:31:21 10° ENE daylight
23 May - 11:05:20 10° NW 11:09:08 42° SW 11:13:01 10° SSE daylight
23 May - 22:52:12 10° SW 22:55:27 39° NW 22:58:40 10° NNE night (unlit)
24 May - 10:37:26 10° NW 10:41:18 49° SW 10:45:14 10° SSE daylight
24 May - 22:24:18 10° SW 22:27:38 46° NW 22:30:56 10° NNE night (unlit)
25 May - 10:09:32 10° NW 10:13:27 56° SW 10:17:26 10° SSE daylight
25 May - 21:56:24 10° SW 21:59:49 55° NW 22:03:10 10° NNE night (unlit)
26 May - 09:41:40 10° NW 09:45:34 65° SW 09:49:35 10° SSE daylight
26 May - 21:28:29 10° SW 21:31:59 66° NW 21:35:22 10° NNE night (unlit)
27 May - 09:13:47 10° NW 09:17:42 76° SW 09:21:44 10° SSE daylight
27 May - 21:00:35 10° SW 21:04:08 79° NW 21:07:33 10° NNE night (unlit)
28 May - 08:45:54 10° NW 08:49:48 87° WSW 08:53:50 10° SE daylight
28 May - 20:32:42 10° SW 20:36:16 88° SE 20:39:42 10° NE night (unlit)
29 May - 08:18:01 10° NW 08:21:55 81° NE 08:25:55 10° SE daylight
29 May - 20:04:48 10° SSW 20:08:23 75° SE 20:11:50 10° NE night (unlit)
30 May - 07:50:09 10° NNW 07:53:59 70° NE 07:57:58 10° SE daylight
30 May - 19:36:54 10° SSW 19:40:29 63° SE 19:43:55 10° NE visible
